• Processing (Info)

  • MPEC 2014-K91 : 2014 KP84

    The following Minor Planet Electronic Circular may be linked-to from your own Web pages, but must not otherwise be redistributed electronically.

    A form allowing access to any MPEC is at the bottom of this page.


    Read MPEC 2014-K90 Read MPEC 2014-K92


    M.P.E.C. 2014-K91                                Issued 2014 May 31, 14:14 UT
    
         The Minor Planet Electronic Circulars contain information on unusual
             minor planets and routine data on comets.  They are published
       on behalf of Commission 20 of the International Astronomical Union by the
              Minor Planet Center, Smithsonian Astrophysical Observatory,
                              Cambridge, MA 02138, U.S.A.
    
                 Prepared using the Tamkin Foundation Computer Network
    
                                  MPC@CFA.HARVARD.EDU
                URL https://www.minorplanetcenter.net/    ISSN 1523-6714
    
                                       2014 KP84
    
    Observations:
         K14K84P* C2014 05 21.35065 14 33 44.573-09 46 36.49         21.9 wLEK091F51
         K14K84P  C2014 05 21.37759 14 33 41.481-09 46 53.64         22.2 wLEK091F51
         K14K84P _C2014 05 22.35062314 31 55.570-09 57 04.05         21.6 RtEK091568
         K14K84P _C2014 05 22.35187614 31 55.432-09 57 04.84         21.8 RtEK091568
         K14K84P _C2014 05 22.35312914 31 55.290-09 57 05.65         21.7 RtEK091568
         K14K84P KC2014 05 23.27118 14 30 17.67 -10 06 43.0          21.5 RoEK091291
         K14K84P KC2014 05 23.27865 14 30 16.86 -10 06 46.5          21.8 RoEK091291
         K14K84P KC2014 05 23.28611 14 30 16.07 -10 06 52.2          21.6 RoEK091291
         K14K84P _C2014 05 30.37626614 19 11.955-11 20 07.63         22.0 RtEK091568
         K14K84P _C2014 05 30.37751914 19 11.847-11 20 08.45         22.0 RtEK091568
         K14K84P KC2014 05 31.23238 14 18 02.91 -11 28 54.8          21.7 RoEK091291
         K14K84P KC2014 05 31.24249 14 18 02.04 -11 29 00.9          21.4 RoEK091291
         K14K84P KC2014 05 31.25263 14 18 01.15 -11 29 08.3          21.9 RoEK091291
    
    Observer details:
    291 LPL/Spacewatch II.  Observers R. A. Mastaler, T. H. Bressi.  1.8-m f/2.7
        reflector + CCD.
    568 Mauna Kea.  Observers R. J. Wainscoat, L. Wells, A. Draginda.  Measurers
        M. Micheli, R. J. Wainscoat.  3.6-m Canada-France-Hawaii Telescope + CCD.
    F51 Pan-STARRS 1, Haleakala.  Observers N. Primak, A. Schultz, T. Goggia,
        M. Willman.  Measurer PS1 Science Consortium.  1.8-m Ritchey-Chretien
        + CCD.
    
    Orbital elements:
    2014 KP84                                           PHA, Earth MOID = 0.0104 AU
    Epoch 2014 May 23.0 TT = JDT 2456800.5                  MPC
    M 116.13891              (2000.0)            P               Q
    n   0.54326959     Peri.   29.31199     +0.10728719     -0.94283746
    a   1.4875074      Node    56.28026     +0.82226350     -0.09424905
    e   0.3501212      Incl.   22.29204     +0.55890266     +0.31964768
    P   1.81           H   20.3           G   0.15           U   8
    Residuals in seconds of arc
    140521 F51  0.1+  0.1+    140523 291  0.0   0.5-    140531 291  0.6+  0.3+
    140521 F51  0.0   0.1-    140523 291  0.0   0.7+    140531 291  0.1+  0.3+
    140522 568  0.2-  0.1+    140523 291  0.2+  0.4-    140531 291  0.7-  0.9-
    140522 568  0.2-  0.1+    140530 568  0.0   0.4+
    140522 568  0.2-  0.0     140530 568  0.0   0.3+
    
    Ephemeris:
    2014 KP84                a,e,i = 1.49, 0.35, 22                  q = 0.9667
    Date    TT    R. A. (2000) Decl.     Delta      r     Elong.  Phase     V
    2014 05 01    15 18 00.4 -06 15 28   0.7642  1.7582   165.7     8.1    21.5
    ...
    2014 05 16    14 44 13.3 -08 50 17   0.8135  1.8090   165.0     8.3    21.7
    ...
    2014 05 24    14 29 02.3 -10 14 11   0.8642  1.8337   155.3    13.3    22.1
    ...
    2014 05 30    14 19 43.3 -11 16 11   0.9120  1.8512   148.0    16.9    22.3
    2014 05 31    14 18 21.5 -11 26 26   0.9207  1.8541   146.8    17.4    22.4
    2014 06 01    14 17 03.0 -11 36 38   0.9296  1.8569   145.6    18.0    22.4
    ...
    2014 06 07    14 10 21.7 -12 37 19   0.9869  1.8731   138.7    21.0    22.7
    ...
    2014 06 15    14 04 26.0 -13 56 51   1.0722  1.8934   130.1    24.2    23.0
    ...
    2014 06 30    14 01 26.6 -16 23 06   1.2518  1.9270   115.9    28.3    23.5
    
    A. U. Tomatic                (C) Copyright 2014 MPC           M.P.E.C. 2014-K91
    

    Read MPEC 2014-K90 Read MPEC 2014-K92


    MPEC number:

    Enter an MPEC number in one of the following forms:

    • 1997-B01 (the full form)
    • J97B01 (the packed version of the full form)
    • B01 (the abbreviated form)